Location: Marcé
(47.5801°N, 0.3280°W)
Time: 21:41:11
(UTC+01:00)

Transit 2A - Pass Details

Date: 05 December 2021
Orbit: 591 x 967 km, 66.7° (Epoch: 23 January)

Event Time Altitude Azimuth Distance (km) Brightness Sun altitude
Rises 11:12:08 0° 313° (NW) 3,663 9.0 16.5°
Reaches altitude 10° 11:15:48 10° 293° (WNW) 2,697 8.5 16.7°
Maximum altitude 11:19:21 16° 258° (WSW) 2,271 8.4 17.0°
Drops below altitude 10° 11:22:49 10° 224° (SW) 2,613 9.2 17.2°
Sets 11:26:18 0° 203° (SSW) 3,490 10.1 17.4°
